BREEZE-KM R/B, 43754

Orbit data source: Space-Track

BREEZE-KM R/B, 43754 is space debris in LEO originally from a launch on Fri, 30 Nov 2018 UTC launched from the Plesetsk Missile And Space Complex (PKMTR). Debris objects in space refer to the collection of defunct objects orbiting the Earth. Examples of debris include non-operational satellites, rocket bodies, and fragments generated from explosions, collisions, or faulty payload assembly.

Loading next visibility...
Identifier
43754, 2018-097D
Orbit
LEO
Country
Flag of CISCIS
Related business
Manufacturer
Khrunichev
Mission
Spacecraft
Bus & Motor
BRIZ, S5.92
Mass
2,370 kg wet, 2,370 kg dry
Launch date (UTC)
2018-11-30 (7 years ago)
Launch vehicle
Unknown
Launch site
Plesetsk Missile And Space Complex (PKMTR)
Object type
Payload
Rocket body
Debris
Shape & HBR
Hex Cyl + 1 Rod, 2.0 m
Radar Cross Section
10.190 m², Large (>1 m²)

Expand to show TLE details & history
Last TLE update: 9 hours ago

TLE from 9 hours ago
0 BREEZE-KM R/B
1 43754U 18097D   25309.21764509  .00000015  00000-0  58380-5 0  9996
2 43754  82.5132 247.9496 0223253 109.3135 253.2255 12.80111113323760
Epoch: 2025-11-05T05:13Z
TLE epoch observation values (Epoch: 2025-11-05T05:13:24.535Z)
Latitude
-0.00003°
Longitude
124.90389°
Altitude
1,397.018 km
Speed
7.137 km/s
True Right ascension
16h 31m 47s
True Declination
0° 00' 00"
Sunlit
Object was in daylight at epoch
Visualization orbit readout
Latitude
Unknown
Longitude
Unknown
Altitude
Unknown
Speed
Unknown
Apparent Right ascension
Unknown
Apparent Declination
Unknown
Sunlit
N/A
Visualization observer readout
Local Sidereal Time
10:30:19
Azimuth
Unknown
Elevation
Unknown
Doppler factor
Unknown
Orbital elements
Apogee altitude
1,510.592 km
Perigee altitude
1,166.047 km
Semi-major axis
7,716.456 km
Eccentricity
0.02233
Inclination
82.5132°
RAAN
247.9496°
Arg. of periapsis
109.3135°
True anomaly
250.79637°
Mean anomaly
253.2255°
Eccentric anomaly
252.0089°
Mean motion
3.20196 °/min
Orbital period
112.43 mins
BSTAR
0.000005838
Loading maneuver chart data...
Computing Atmospheric mass density...
Loading historical data...
Loading historical data...
Loading historical data...
Loading historical data...
Loading historical data...
Loading historical data...
Loading historical data...
Other satellites on launch #97 in the year 2018 (2018-11-30 UTC)

Documentation

Showing up to 5 results
|